Flag for Thailand Weather past 2 weeks in Phuket, Thailand

Now
79 °F

Partly cloudy.


Feels Like: 82 °F
Forecast: 79 / 84 °F
Wind: 7 mph from West

Location: Phuket Airport

Current Time: Sep 1, 2015 at 1:45:50 AM

Latest Report: Sep 1, 2015 at 1:00 AM


Visibility: 4 mi

Pressure: 29.89 "Hg

Humidity: 84%

Dew point: 73 °F

Location of PhuketLocation

Historic Weather in Phuket — Graph

°F

Phuket temperature yesterday

Maximum temperature yesterday: 88 °F (at 2:30 PM)
Minimum temperature yesterday: 77 °F (at 1:30 AM)
Average temperature yesterday: 82 °F

Past Weeks' High & Low Weather Summary

 TemperatureHumidityPressure
High90 °F (Aug 26, 1:30 PM)100% (Aug 27, 4:00 PM)29.95 "Hg (Aug 27, 4:00 PM)
Low37 °F (Aug 27, 4:00 PM)59% (Aug 18, 10:30 AM)29.62 "Hg (Aug 19, 4:30 PM)
Average82 °F79%29.86 "Hg
* Reported Midnight between Aug 16 and Aug 17 — Sep 1 12:30 AM, Phuket, Weather by CustomWeather, © 2015

Note: Actual official high and low records may vary slightly from our data, if they occured in-between our weather recording intervals... More about our weather records

Advertising

Phuket weather history for previous 24 hours

 ConditionsComfort  
Time TempWeatherWind HumidityBarometerVisibility
12:30 AM
Tue, Sep 1
81 °FRain. Partly cloudy.14 mph84%29.89 "Hg3 mi
12:00 AM81 °FPartly cloudy.10 mph84%29.92 "Hg6 mi
11:30 PM
Mon, Aug 31
81 °FPartly cloudy.8 mph79%29.92 "Hg6 mi
11:00 PM82 °FPartly cloudy.12 mph74%29.92 "Hg6 mi
10:30 PM84 °FPartly cloudy.8 mph74%29.92 "Hg6 mi
10:00 PM84 °FPartly cloudy.10 mph70%29.92 "Hg6 mi
9:30 PM82 °FPartly cloudy.10 mph74%29.92 "Hg6 mi
9:00 PM84 °FPartly cloudy.8 mph74%29.89 "Hg6 mi
8:30 PM84 °FPartly cloudy.8 mph74%29.89 "Hg6 mi
8:00 PM82 °FPartly cloudy.8 mph79%29.86 "Hg6 mi
7:30 PM84 °FPartly cloudy.9 mph70%29.86 "Hg6 mi
7:00 PM84 °FPartly cloudy.10 mph70%29.86 "Hg6 mi
6:30 PM84 °FBroken clouds.12 mph74%29.86 "HgN/A
6:00 PM84 °FBroken clouds.9 mph74%29.83 "HgN/A
5:30 PM86 °FBroken clouds.10 mph70%29.83 "HgN/A
5:00 PM86 °FPartly sunny.10 mph70%29.83 "HgN/A
4:30 PM86 °FPartly sunny.10 mph70%29.83 "HgN/A
4:00 PM86 °FPartly sunny.10 mph66%29.83 "HgN/A
3:30 PM86 °FPartly sunny.10 mph66%29.86 "HgN/A
3:00 PM88 °FPartly sunny.12 mph62%29.86 "HgN/A
2:30 PM88 °FPartly sunny.10 mph62%29.86 "HgN/A
2:00 PM86 °FPartly sunny.12 mph66%29.86 "HgN/A
1:30 PM86 °FPartly sunny.12 mph70%29.89 "HgN/A
1:00 PM86 °FPartly sunny.10 mph70%29.89 "HgN/A
12:30 PM86 °FPartly sunny.10 mph70%29.92 "HgN/A
12:00 PM86 °FPartly sunny.9 mph70%29.92 "HgN/A
11:30 AM86 °FScattered clouds.10 mph66%29.92 "HgN/A
11:00 AM86 °FScattered clouds.7 mph66%29.92 "HgN/A
10:30 AM84 °FBroken clouds.5 mph70%29.95 "HgN/A
10:00 AM84 °FBroken clouds.7 mph70%29.95 "HgN/A
9:30 AM84 °FBroken clouds.7 mph70%29.95 "HgN/A
9:00 AM82 °FBroken clouds.7 mph79%29.92 "Hg6 mi
8:30 AM81 °FLight rain. Broken clouds.6 mph84%29.92 "Hg4 mi
8:00 AM82 °FBroken clouds.2 mph84%29.89 "HgN/A
7:30 AM81 °FPartly sunny.2 mph89%29.89 "HgN/A
7:00 AM79 °FPartly sunny.2 mph89%29.86 "HgN/A
6:30 AM79 °FBroken clouds.No wind89%29.86 "Hg6 mi
6:00 AM77 °FPartly cloudy.2 mph94%29.86 "Hg4 mi
5:30 AM77 °FPartly cloudy.1 mph94%29.86 "Hg4 mi
5:00 AM77 °FPartly cloudy.No wind94%29.86 "Hg4 mi
4:30 AM77 °FPartly cloudy.1 mph94%29.86 "Hg4 mi
4:00 AM77 °FPassing clouds.2 mph94%29.86 "Hg4 mi
3:30 AM77 °FPassing clouds.1 mph94%29.89 "Hg4 mi
3:00 AM79 °FPassing clouds.No wind89%29.89 "Hg4 mi
2:30 AM77 °FPartly cloudy.2 mph94%29.89 "Hg4 mi
2:00 AM77 °FPartly cloudy.1 mph94%29.89 "Hg4 mi
1:30 AM77 °FPassing clouds.1 mph89%29.89 "Hg4 mi
1:00 AM79 °FPassing clouds.No wind89%29.92 "Hg4 mi
Weather by CustomWeather, © 2015

See weather overviewHow to use our weather pages